• In Hungary
  • List of Countries
  • For 7 days
  • Water Temperature
  • Satellite Maps
  • Weather Map
  • News
  • Weather Widgets
  • user-avatar
    Login

    Hourly Weather Kayanza

    Today, 22 September, Saturday

    Time Temperature Precipitation Wind Pressure Humidity
    00:00 +16°C° 0 mm 1 mps 604 mmHg 77%
    01:00 +16°C° 0 mm 1 mps 604 mmHg 78%
    02:00 +15°C° 0 mm 1 mps 603 mmHg 78%
    03:00 +15°C° 0 mm 1 mps 603 mmHg 78%
    04:00 +14°C° 0 mm 0 mps 603 mmHg 79%
    05:00 +13°C° 0 mm 0 mps 603 mmHg 80%
    06:00 +16°C° 0 mm 1 mps 604 mmHg 72%
    07:00 +19°C° 0 mm 1 mps 606 mmHg 64%
    08:00 +20°C° 0 mm 2 mps 607 mmHg 57%
    09:00 +23°C° 0 mm 2 mps 607 mmHg 51%
    10:00 +25°C° 0 mm 2 mps 608 mmHg 45%
    11:00 +26°C° 0 mm 2 mps 608 mmHg 39%
    12:00 +26°C° 0 mm 2 mps 607 mmHg 38%
    13:00 +27°C° 0 mm 2 mps 607 mmHg 37%
    14:00 +27°C° 0 mm 2 mps 607 mmHg 36%
    15:00 +26°C° 0 mm 2 mps 606 mmHg 38%
    16:00 +25°C° 0 mm 1 mps 606 mmHg 39%
    17:00 +25°C° 0 mm 1 mps 606 mmHg 41%
    18:00 +23°C° 0 mm 1 mps 605 mmHg 45%
    19:00 +21°C° 0 mm 1 mps 605 mmHg 50%
    20:00 +18°C° 0 mm 0 mps 605 mmHg 54%
    21:00 +17°C° 0 mm 0 mps 605 mmHg 55%
    22:00 +17°C° 0 mm 0 mps 605 mmHg 57%
    23:00 +16°C° 0 mm 0 mps 605 mmHg 59%

    Tomorrow, 23 September, Sunday

    Time Temperature Precipitation Wind Pressure Humidity
    00:00 +18°C° 0 mm 1 mps 604 mmHg 60%
    01:00 +16°C° 0 mm 1 mps 604 mmHg 61%
    02:00 +16°C° 0 mm 1 mps 604 mmHg 63%
    03:00 +15°C° 0 mm 1 mps 604 mmHg 63%
    04:00 +15°C° 0 mm 1 mps 604 mmHg 64%
    05:00 +15°C° 0 mm 1 mps 603 mmHg 65%
    06:00 +18°C° 0 mm 1 mps 605 mmHg 58%
    07:00 +20°C° 0 mm 1 mps 606 mmHg 52%
    08:00 +21°C° 0 mm 2 mps 607 mmHg 45%
    09:00 +24°C° 0 mm 2 mps 608 mmHg 41%
    10:00 +26°C° 0 mm 2 mps 608 mmHg 37%
    11:00 +27°C° 0 mm 2 mps 609 mmHg 33%
    12:00 +27°C° 0 mm 2 mps 608 mmHg 34%
    13:00 +27°C° 0 mm 2 mps 607 mmHg 34%
    14:00 +27°C° 0 mm 2 mps 606 mmHg 34%
    15:00 +26°C° 0 mm 1 mps 606 mmHg 36%
    16:00 +25°C° 0 mm 1 mps 606 mmHg 37%
    17:00 +25°C° 0 mm 1 mps 605 mmHg 39%
    18:00 +23°C° 0 mm 1 mps 605 mmHg 43%
    19:00 +21°C° 0 mm 1 mps 605 mmHg 47%
    20:00 +18°C° 0 mm 0 mps 605 mmHg 52%
    21:00 +17°C° 0 mm 0 mps 605 mmHg 53%
    22:00 +17°C° 0 mm 0 mps 605 mmHg 55%
    23:00 +16°C° 0 mm 0 mps 605 mmHg 57%

    Day after tomorrow, 24 September, Monday

    Time Temperature Precipitation Wind Pressure Humidity
    00:00 +18°C° 0 mm 1 mps 604 mmHg 59%
    01:00 +16°C° 0 mm 1 mps 604 mmHg 60%
    02:00 +16°C° 0 mm 1 mps 603 mmHg 62%
    03:00 +16°C° 0 mm 1 mps 603 mmHg 63%
    04:00 +15°C° 0 mm 1 mps 603 mmHg 65%
    05:00 +15°C° 0 mm 1 mps 603 mmHg 66%
    06:00 +18°C° 0 mm 1 mps 604 mmHg 60%
    07:00 +20°C° 0 mm 1 mps 606 mmHg 55%
    08:00 +22°C° 0 mm 1 mps 607 mmHg 50%
    09:00 +23°C° 0 mm 1 mps 607 mmHg 46%
    10:00 +25°C° 0 mm 1 mps 608 mmHg 41%
    11:00 +27°C° 0 mm 2 mps 609 mmHg 37%
    12:00 +27°C° 0 mm 2 mps 608 mmHg 37%
    13:00 +27°C° 0 mm 1 mps 607 mmHg 36%
    14:00 +27°C° 0 mm 1 mps 606 mmHg 35%
    15:00 +26°C° 0.2 mm 1 mps 606 mmHg 37%
    16:00 +26°C° 0.2 mm 1 mps 605 mmHg 39%
    17:00 +25°C° 0.2 mm 1 mps 605 mmHg 41%
    18:00 +23°C° 0 mm 1 mps 605 mmHg 45%
    19:00 +22°C° 0 mm 1 mps 605 mmHg 50%
    20:00 +18°C° 0 mm 0 mps 605 mmHg 54%
    21:00 +17°C° 0 mm 0 mps 605 mmHg 56%
    22:00 +17°C° 0 mm 0 mps 605 mmHg 58%
    23:00 +18°C° 0 mm 1 mps 605 mmHg 61%

    25 September, Tuesday

    Time Temperature Precipitation Wind Pressure Humidity
    00:00 +16°C° 0 mm 1 mps 604 mmHg 62%
    01:00 +16°C° 0 mm 1 mps 603 mmHg 63%
    02:00 +15°C° 0 mm 1 mps 603 mmHg 65%
    03:00 +15°C° 0 mm 1 mps 603 mmHg 66%
    04:00 +15°C° 0 mm 1 mps 603 mmHg 67%
    05:00 +15°C° 0 mm 1 mps 603 mmHg 68%
    06:00 +18°C° 0 mm 1 mps 604 mmHg 60%
    07:00 +20°C° 0 mm 1 mps 606 mmHg 53%
    08:00 +22°C° 0 mm 1 mps 607 mmHg 46%
    09:00 +24°C° 0 mm 2 mps 608 mmHg 40%
    10:00 +26°C° 0 mm 2 mps 608 mmHg 35%
    11:00 +28°C° 0 mm 2 mps 609 mmHg 30%
    12:00 +27°C° 0 mm 2 mps 608 mmHg 30%
    13:00 +27°C° 0 mm 2 mps 607 mmHg 30%
    14:00 +27°C° 0 mm 2 mps 606 mmHg 31%
    15:00 +26°C° 0 mm 2 mps 606 mmHg 32%
    16:00 +26°C° 0 mm 2 mps 605 mmHg 34%
    17:00 +25°C° 0 mm 2 mps 605 mmHg 35%
    18:00 +23°C° 0 mm 1 mps 605 mmHg 40%
    19:00 +21°C° 0 mm 1 mps 605 mmHg 44%
    20:00 +17°C° 0 mm 0 mps 605 mmHg 48%
    21:00 +17°C° 0 mm 0 mps 605 mmHg 49%
    22:00 +19°C° 0 mm 1 mps 605 mmHg 50%
    23:00 +18°C° 0 mm 1 mps 605 mmHg 51%

    26 September, Wednesday

    Time Temperature Precipitation Wind Pressure Humidity
    00:00 +18°C° 0 mm 1 mps 604 mmHg 53%
    01:00 +16°C° 0 mm 1 mps 604 mmHg 54%
    02:00 +16°C° 0 mm 1 mps 603 mmHg 55%
    03:00 +16°C° 0 mm 1 mps 603 mmHg 55%
    04:00 +16°C° 0 mm 1 mps 604 mmHg 55%
    05:00 +15°C° 0 mm 0 mps 604 mmHg 55%
    06:00 +19°C° 0 mm 1 mps 605 mmHg 51%
    07:00 +20°C° 0 mm 1 mps 606 mmHg 47%
    08:00 +21°C° 0 mm 2 mps 608 mmHg 42%
    09:00 +24°C° 0 mm 2 mps 608 mmHg 39%
    10:00 +26°C° 0 mm 2 mps 608 mmHg 35%
    11:00 +28°C° 0 mm 2 mps 609 mmHg 31%
    12:00 +28°C° 0 mm 2 mps 608 mmHg 31%
    13:00 +28°C° 0 mm 2 mps 607 mmHg 31%
    14:00 +27°C° 0 mm 2 mps 605 mmHg 31%
    15:00 +27°C° 0 mm 2 mps 605 mmHg 32%
    16:00 +26°C° 0 mm 1 mps 605 mmHg 34%
    17:00 +26°C° 0 mm 1 mps 605 mmHg 35%
    18:00 +24°C° 0 mm 1 mps 605 mmHg 38%
    19:00 +23°C° 0 mm 1 mps 605 mmHg 42%
    20:00 +21°C° 0 mm 1 mps 605 mmHg 45%
    21:00 +21°C° 0.1 mm 1 mps 605 mmHg 47%
    22:00 +20°C° 0.1 mm 1 mps 605 mmHg 48%
    23:00 +20°C° 0.1 mm 1 mps 605 mmHg 50%

    27 September, Thursday

    Time Temperature Precipitation Wind Pressure Humidity
    00:00 +19°C° 0.2 mm 1 mps 605 mmHg 53%
    01:00 +19°C° 0.2 mm 1 mps 604 mmHg 56%
    02:00 +18°C° 0.2 mm 1 mps 604 mmHg 59%
    03:00 +18°C° 0 mm 1 mps 604 mmHg 61%
    04:00 +15°C° 0 mm 0 mps 604 mmHg 63%
    05:00 +15°C° 0 mm 0 mps 604 mmHg 65%
    06:00 +18°C° 0 mm 1 mps 605 mmHg 63%
    07:00 +19°C° 0 mm 1 mps 606 mmHg 61%
    08:00 +19°C° 0 mm 2 mps 607 mmHg 59%
    09:00 +20°C° 0.1 mm 2 mps 607 mmHg 55%
    10:00 +21°C° 0.1 mm 2 mps 607 mmHg 52%
    11:00 +23°C° 0.1 mm 2 mps 607 mmHg 48%
    12:00 +23°C° 0.3 mm 2 mps 607 mmHg 51%
    13:00 +21°C° 0.3 mm 2 mps 606 mmHg 54%
    14:00 +21°C° 0.3 mm 2 mps 605 mmHg 57%
    15:00 +20°C° 0.9 mm 2 mps 605 mmHg 61%
    16:00 +20°C° 0.9 mm 1 mps 605 mmHg 66%
    17:00 +20°C° 0.9 mm 1 mps 605 mmHg 71%
    18:00 +19°C° 0.5 mm 1 mps 605 mmHg 74%
    19:00 +16°C° 0.5 mm 0 mps 605 mmHg 78%
    20:00 +16°C° 0.5 mm 0 mps 605 mmHg 82%
    21:00 +15°C° 0.3 mm 0 mps 605 mmHg 83%
    22:00 +15°C° 0.3 mm 0 mps 605 mmHg 85%
    23:00 +14°C° 0.3 mm 0 mps 605 mmHg 86%
    Show more